Weather History for KBPC - August, 2014

Change the Weather History Date:

Monday, August 18, 2014

  Actual Average (KBGD) Record (KBGD)
Temperature  
Mean Temperature 80 °F 80 °F  
Max Temperature 95 °F 92 °F 104 °F (1994)
Min Temperature 64 °F 68 °F 56 °F (1950)
Degree Days  
Heating Degree Days 0 0  
Month to date heating degree days 0  
Since 1 June heating degree days 3  
Since 1 July heating degree days 0  
Cooling Degree Days 14 15  
Month to date cooling degree days 293  
Year to date cooling degree days 1374  
Since 1 June cooling degree days 1177  
Growing Degree Days 30 (Base 50)    
Moisture  
Dew Point 58 °F    
Average Humidity 52    
Maximum Humidity 94    
Minimum Humidity 25    
Precipitation  
Precipitation 0.00 in 0.12 in 1.86 in (1960)
Month to date precipitation 1.71  
Year to date precipitation 14.55  
Snow  
Snow 0.00 in - 0.00 in (2013)
Month to date snowfall  
Since 1 June snowfall  
Since 1 July snowfall  
Snow Depth -    
Sea Level Pressure  
Sea Level Pressure 29.96 in    
Wind  
Wind Speed 6 mph (SSW)    
Max Wind Speed 14 mph    
Max Gust Speed 16 mph    
Visibility 10 miles    
Events      
T = Trace of Precipitation, MM = Missing Value Source: NWS Daily Summary

Daily Weather History Graph

Daily Weather History Graph

Search for Another Location

Airport or City:

Trip Planner

Search our weather history database for the weather conditions in past years. The results will help you decide how hot, cold, wet, or windy it might be!

Date:

Astronomy

Aug. 18, 2014 Rise Set
Actual Time 7:05 AM CDT 8:30 PM CDT
Civil Twilight 6:38 AM CDT 8:57 PM CDT
Nautical Twilight 6:05 AM CDT 9:29 PM CDT
Astronomical Twilight 5:31 AM CDT 10:02 PM CDT
Moon 1:16 AM CDT (8/18) 3:32 PM CDT (8/18)
Length of Visible Light 14h 18m
Length of Day
13h 24m
Last Quarter, 38% of the Moon is Illuminated
Aug 18
Last Quarter
Aug 25
New
Sep 2
First Quarter
Sep 8
Full
Sep 15
Last Quarter

Hourly Weather History & Observations

Time (CDT) Temp. Heat Index Dew Point Humidity Pressure Visibility Wind Dir Wind Speed Gust Speed Precip Events Conditions
12:15 AM 73.4 °F - 59.0 °F 61% 29.99 in 10.0 mi SSW 5.8 mph - N/A   Clear
12:35 AM 73.4 °F - 59.0 °F 61% 29.99 in 10.0 mi South 8.1 mph - N/A   Clear
12:55 AM 73.4 °F - 59.0 °F 61% 29.99 in 10.0 mi Calm Calm - N/A   Clear
1:15 AM 71.6 °F - 60.8 °F 69% 29.99 in 10.0 mi NNW 4.6 mph - N/A   Clear
1:35 AM 71.6 °F - 59.0 °F 64% 29.99 in 10.0 mi Calm Calm - N/A   Clear
1:55 AM 73.4 °F - 59.0 °F 61% 29.99 in 10.0 mi West 3.5 mph - N/A   Clear
2:15 AM 69.8 °F - 59.0 °F 68% 29.98 in 10.0 mi SW 5.8 mph - N/A   Clear
2:35 AM 69.8 °F - 59.0 °F 68% 29.99 in 10.0 mi WSW 5.8 mph - N/A   Clear
2:55 AM 69.8 °F - 59.0 °F 68% 29.98 in 10.0 mi SW 9.2 mph - N/A   Clear
3:15 AM 71.6 °F - 60.8 °F 69% 29.98 in 10.0 mi SW 10.4 mph - N/A   Clear
3:35 AM 71.6 °F - 60.8 °F 69% 29.97 in 10.0 mi SW 10.4 mph - N/A   Clear
3:55 AM 71.6 °F - 60.8 °F 69% 29.97 in 10.0 mi SW 9.2 mph - N/A   Clear
4:15 AM 69.8 °F - 60.8 °F 73% 29.97 in 10.0 mi SW 9.2 mph - N/A   Clear
4:35 AM 69.8 °F - 60.8 °F 73% 29.97 in 10.0 mi SW 8.1 mph - N/A   Clear
4:55 AM 69.8 °F - 60.8 °F 73% 29.97 in 10.0 mi WSW 8.1 mph - N/A   Clear
5:15 AM 69.8 °F - 62.6 °F 78% 29.98 in 10.0 mi WSW 6.9 mph - N/A   Clear
5:35 AM 68.0 °F - 62.6 °F 83% 29.98 in 10.0 mi SW 6.9 mph - N/A   Clear
5:55 AM 68.0 °F - 62.6 °F 83% 29.99 in 10.0 mi Calm Calm - N/A   Clear
6:15 AM 68.0 °F - 62.6 °F 83% 30.00 in 10.0 mi SE 3.5 mph - N/A   Clear
6:35 AM 66.2 °F - 62.6 °F 88% 30.00 in 10.0 mi Calm Calm - N/A   Clear
6:55 AM 66.2 °F - 62.6 °F 88% 30.01 in 10.0 mi NE 6.9 mph - N/A   Clear
7:15 AM 64.4 °F - 62.6 °F 94% 30.01 in 10.0 mi SSE 3.5 mph - N/A   Clear
7:35 AM 66.2 °F - 62.6 °F 88% 30.03 in 10.0 mi East 5.8 mph - N/A   Clear
7:55 AM 68.0 °F - 62.6 °F 83% 30.02 in 10.0 mi Calm Calm - N/A   Clear
8:15 AM 69.8 °F - 62.6 °F 78% 30.01 in 10.0 mi SSE 5.8 mph - N/A   Clear
8:35 AM 73.4 °F - 62.6 °F 69% 30.01 in 10.0 mi South 4.6 mph - N/A   Clear
8:55 AM 75.2 °F - 62.6 °F 65% 30.01 in 10.0 mi South 4.6 mph - N/A   Clear
9:15 AM 77.0 °F - 62.6 °F 61% 30.01 in 10.0 mi SW 3.5 mph - N/A   Clear
9:35 AM 77.0 °F - 64.4 °F 65% 30.01 in 10.0 mi Calm Calm - N/A   Clear
9:55 AM 78.8 °F - 64.4 °F 61% 30.01 in 10.0 mi Calm Calm - N/A   Clear
10:15 AM 78.8 °F - 64.4 °F 61% 30.01 in 10.0 mi Calm Calm - N/A   Clear
10:35 AM 80.6 °F 82.3 °F 64.4 °F 58% 30.00 in 10.0 mi Calm Calm - N/A   Clear
10:55 AM 82.4 °F 83.9 °F 64.4 °F 54% 30.01 in 10.0 mi SSE 3.5 mph - N/A   Clear
11:15 AM 82.4 °F 82.9 °F 60.8 °F 48% 30.01 in 10.0 mi Calm Calm - N/A   Clear
11:35 AM 86.0 °F 86.6 °F 62.6 °F 45% 30.00 in 10.0 mi SW 3.5 mph - N/A   Clear
11:55 AM 86.0 °F 86.1 °F 60.8 °F 43% 30.00 in 10.0 mi SW 4.6 mph - N/A   Clear
12:15 PM 87.8 °F 87.1 °F 59.0 °F 38% 29.99 in 10.0 mi SSW 9.2 mph - N/A   Clear
12:35 PM 87.8 °F 87.6 °F 60.8 °F 40% 29.98 in 10.0 mi SSW 4.6 mph - N/A   Clear
12:55 PM 89.6 °F 88.9 °F 59.0 °F 36% 29.97 in 10.0 mi South 4.6 mph - N/A   Clear
1:15 PM 91.4 °F 90.7 °F 59.0 °F 34% 29.96 in 10.0 mi South 10.4 mph - N/A   Clear
1:35 PM 93.2 °F 91.3 °F 55.4 °F 28% 29.95 in 10.0 mi North - - N/A   Clear
1:55 PM 95.0 °F 92.7 °F 53.6 °F 25% 29.94 in 10.0 mi North - - N/A   Clear
2:15 PM 89.6 °F 87.7 °F 55.4 °F 31% 29.94 in 10.0 mi South 12.7 mph - N/A   Clear
2:35 PM 89.6 °F 87.3 °F 53.6 °F 29% 29.94 in 10.0 mi SSW 10.4 mph - N/A   Clear
2:55 PM 89.6 °F 87.7 °F 55.4 °F 31% 29.94 in 10.0 mi SSW 12.7 mph - N/A   Clear
3:15 PM 89.6 °F 87.7 °F 55.4 °F 31% 29.94 in 10.0 mi South 9.2 mph 16.1 mph N/A   Clear
3:35 PM 89.6 °F 88.1 °F 57.2 °F 33% 29.93 in 10.0 mi SSW 11.5 mph - N/A   Clear
3:55 PM 89.6 °F 88.9 °F 59.0 °F 36% 29.92 in 10.0 mi North - - N/A   Clear
4:15 PM 89.6 °F 87.7 °F 55.4 °F 31% 29.92 in 10.0 mi North - - N/A   Clear
4:35 PM 89.6 °F 88.1 °F 57.2 °F 33% 29.91 in 10.0 mi South 6.9 mph - N/A   Clear
4:55 PM 89.6 °F 87.7 °F 55.4 °F 31% 29.90 in 10.0 mi North - - N/A   Clear
5:15 PM 89.6 °F 87.7 °F 55.4 °F 31% 29.89 in 10.0 mi North - - N/A   Clear
5:35 PM 87.8 °F 86.1 °F 55.4 °F 33% 29.88 in 10.0 mi North - - N/A   Clear
5:55 PM 89.6 °F 87.3 °F 53.6 °F 29% 29.88 in 10.0 mi North - - N/A   Clear
6:15 PM 91.4 °F 89.1 °F 53.6 °F 28% 29.88 in 10.0 mi North - - N/A   Clear
6:35 PM 91.4 °F - 51.8 °F 26% 29.88 in 10.0 mi North - - N/A   Clear
6:55 PM 91.4 °F - 51.8 °F 26% 29.87 in 10.0 mi North - - N/A   Clear
7:15 PM 89.6 °F - 51.8 °F 27% 29.87 in 10.0 mi North - - N/A   Clear
7:35 PM 87.8 °F - 51.8 °F 29% 29.87 in 10.0 mi North - - N/A   Clear
7:55 PM 86.0 °F - 51.8 °F 31% 29.88 in 10.0 mi South 10.4 mph - N/A   Clear
8:15 PM 86.0 °F - 51.8 °F 31% 29.88 in 10.0 mi South 10.4 mph - N/A   Clear
8:35 PM 82.4 °F - 51.8 °F 35% 29.89 in 10.0 mi South 10.4 mph - N/A   Clear
8:55 PM 80.6 °F 80.3 °F 53.6 °F 39% 29.90 in 10.0 mi South 11.5 mph - N/A   Clear
9:15 PM 80.6 °F 80.3 °F 53.6 °F 39% 29.90 in 10.0 mi SSE 11.5 mph - N/A   Clear
9:35 PM 80.6 °F 80.3 °F 53.6 °F 39% 29.91 in 10.0 mi South 12.7 mph - N/A   Clear
9:55 PM 80.6 °F 80.3 °F 53.6 °F 39% 29.91 in 10.0 mi South 13.8 mph - N/A   Clear
10:15 PM 80.6 °F 80.3 °F 53.6 °F 39% 29.91 in 10.0 mi South 12.7 mph - N/A   Clear
10:35 PM 78.8 °F - 53.6 °F 42% 29.93 in 10.0 mi SSE 11.5 mph - N/A   Clear
11:15 PM 77.0 °F - 53.6 °F 44% 29.94 in 10.0 mi SSE 11.5 mph - N/A   Clear
11:35 PM 77.0 °F - 55.4 °F 47% 29.94 in 10.0 mi SSE 11.5 mph - N/A   Clear
11:55 PM 77.0 °F - 55.4 °F 47% 29.94 in 10.0 mi SSE 13.8 mph - N/A   Clear